User: anonymous   Login
Location: Nitra
(48.3167°N, 18.0833°E)
Time: 11:46:48
(UTC+02:00)
Language:

ISS - Orbit

View from above orbital plane
View from above orbital plane
View from above satellite
View from above satellite

Ground track
Ground track

The orbit data is extracted from the following two-line orbital elements,

1 25544U 98067A   19293.90487327  .00016717  00000-0  10270-3 0  9034
2 25544  51.6426  97.8977 0006846 170.6875 189.4404 15.50212100 34757
Epoch (UTC): 20 October 2019 21:43:01
Eccentricity: 0.0006846
inclination: 51.6426°
perigee height: 411 km
apogee height: 421 km
right ascension of ascending node: 97.8977°
argument of perigee: 170.6875°
revolutions per day: 15.50212100
mean anomaly at epoch: 189.4404°
orbit number at epoch: 3475

The dashed part of the orbit path shows where the satellite is in the earth's shadow,  

DLR